Monroe, MI

3:11 AM EDT on July 22, 2017 (GMT -0400)
Custer

Weather History for KTTF - October, 2013

Change the Weather History Date:

Wednesday, October 16, 2013

  Actual Average Record
Temperature  
Mean Temperature 60 °F -  
Max Temperature 66 °F 61 °F 85 °F (1938)
Min Temperature 55 °F 43 °F 29 °F (1991)
Degree Days  
Heating Degree Days 4    
Growing Degree Days 10 (Base 50)    
Moisture  
Dew Point 53 °F    
Average Humidity 75    
Maximum Humidity 100    
Minimum Humidity 52    
Precipitation  
Precipitation 0.00 in - - ()
Sea Level Pressure  
Sea Level Pressure 29.85 in    
Wind  
Wind Speed 10 mph (WSW)    
Max Wind Speed 18 mph    
Max Gust Speed 28 mph    
Visibility 9 miles    
Events Rain    
Averages and records for this station are not official NWS values.
T = Trace of Precipitation, MM = Missing Value Source: NWS Daily Summary

Daily Weather History Graph

Daily Weather History Graph

Search for Another Location

Airport or City:

Trip Planner

Search our weather history database for the weather conditions in past years. The results will help you decide how hot, cold, wet, or windy it might be!

Date:

Astronomy

Oct. 16, 2013 Rise Set
Actual Time 7:47 AM EDT 6:50 PM EDT
Civil Twilight 7:19 AM EDT 7:18 PM EDT
Nautical Twilight 6:46 AM EDT 7:50 PM EDT
Astronomical Twilight 6:14 AM EDT 8:22 PM EDT
Moon 5:30 PM EDT (10/16) 5:12 AM EDT (10/16)
Length of Visible Light 11h 58m
Length of Day
11h 02m
Waxing Gibbous, 94% of the Moon is Illuminated
Oct 16
Waxing Gibbous
Oct 18
Full
Oct 26
Last Quarter
Nov 3
New
Nov 10
First Quarter

Hourly Weather History & Observations

Time (EDT) Temp. Dew Point Humidity Pressure Visibility Wind Dir Wind Speed Gust Speed Precip Events Conditions
12:16 AM 64.4 °F 62.6 °F 94% 29.85 in 5.0 mi SW 12.7 mph 18.4 mph N/A   Light Drizzle
12:36 AM 64.4 °F 62.6 °F 94% 29.85 in 7.0 mi SW 9.2 mph - N/A Rain Light Rain
12:56 AM 66.2 °F 62.6 °F 88% 29.84 in 7.0 mi SW 11.5 mph 16.1 mph N/A Rain Light Rain
1:17 AM 66.2 °F 62.6 °F 88% 29.83 in 10.0 mi SW 10.4 mph - N/A   Overcast
1:32 AM 66.2 °F 62.6 °F 88% 29.84 in 10.0 mi SW 8.1 mph 16.1 mph N/A   Overcast
1:52 AM 66.2 °F 62.6 °F 88% 29.84 in 7.0 mi SW 9.2 mph - N/A   Overcast
2:12 AM 66.2 °F 62.6 °F 88% 29.84 in 7.0 mi SW 9.2 mph - N/A   Overcast
2:32 AM 64.4 °F 62.6 °F 94% 29.84 in 7.0 mi SW 10.4 mph - N/A   Scattered Clouds
2:52 AM 64.4 °F 62.6 °F 94% 29.85 in 7.0 mi SW 6.9 mph - N/A   Scattered Clouds
3:12 AM 64.4 °F 62.6 °F 94% 29.84 in 7.0 mi SW 5.8 mph - N/A   Scattered Clouds
3:33 AM 64.4 °F 62.6 °F 94% 29.83 in 7.0 mi SW 6.9 mph - N/A   Scattered Clouds
3:53 AM 62.6 °F 62.6 °F 100% 29.83 in 7.0 mi SW 6.9 mph - N/A   Scattered Clouds
4:13 AM 62.6 °F 60.8 °F 94% 29.83 in 5.0 mi SSW 5.8 mph - N/A   Scattered Clouds
4:33 AM 62.6 °F 60.8 °F 94% 29.82 in 5.0 mi SSW 6.9 mph - N/A   Scattered Clouds
4:53 AM 62.6 °F 60.8 °F 94% 29.82 in 5.0 mi SSW 5.8 mph - N/A   Clear
5:13 AM 62.6 °F 62.6 °F 100% 29.82 in 5.0 mi SSW 6.9 mph - N/A   Scattered Clouds
5:33 AM 62.6 °F 60.8 °F 94% 29.82 in 5.0 mi SSW 5.8 mph - N/A   Scattered Clouds
5:53 AM 62.6 °F 60.8 °F 94% 29.82 in 5.0 mi SSW 5.8 mph - N/A   Clear
6:13 AM 62.6 °F 60.8 °F 94% 29.82 in 5.0 mi SSW 5.8 mph - N/A   Scattered Clouds
6:33 AM 62.6 °F 62.6 °F 100% 29.82 in 5.0 mi SSW 4.6 mph - N/A   Mostly Cloudy
6:53 AM 62.6 °F 60.8 °F 94% 29.83 in 5.0 mi SSW 6.9 mph - N/A   Mostly Cloudy
7:14 AM 62.6 °F 60.8 °F 94% 29.82 in 5.0 mi SSW 6.9 mph - N/A   Scattered Clouds
7:34 AM 62.6 °F 60.8 °F 94% 29.82 in 5.0 mi SSW 4.6 mph - N/A   Mostly Cloudy
7:54 AM 62.6 °F 60.8 °F 94% 29.83 in 5.0 mi SSW 4.6 mph - N/A   Overcast
8:14 AM 62.6 °F 60.8 °F 94% 29.83 in 5.0 mi SW 8.1 mph - N/A   Mostly Cloudy
8:34 AM 59.0 °F 53.6 °F 82% 29.84 in 10.0 mi West 6.9 mph - N/A   Overcast
8:54 AM 59.0 °F 55.4 °F 88% 29.84 in 10.0 mi West 5.8 mph - N/A   Overcast
9:14 AM 59.0 °F 53.6 °F 82% 29.85 in 10.0 mi WSW 6.9 mph - N/A   Overcast
9:34 AM 60.8 °F 53.6 °F 77% 29.85 in 10.0 mi WSW 5.8 mph - N/A   Overcast
9:54 AM 60.8 °F 53.6 °F 77% 29.85 in 10.0 mi West 6.9 mph - N/A   Overcast
10:14 AM 60.8 °F 51.8 °F 72% 29.84 in 10.0 mi West 10.4 mph - N/A   Overcast
10:35 AM 62.6 °F 51.8 °F 68% 29.85 in 10.0 mi WSW 9.2 mph - N/A   Scattered Clouds
10:55 AM 62.6 °F 51.8 °F 68% 29.85 in 10.0 mi WSW 12.7 mph 19.6 mph N/A   Clear
11:15 AM 62.6 °F 51.8 °F 68% 29.85 in 10.0 mi West 15.0 mph 19.6 mph N/A   Clear
11:35 AM 62.6 °F 50.0 °F 63% 29.84 in 10.0 mi WSW 18.4 mph 21.9 mph N/A   Clear
11:55 AM 62.6 °F 50.0 °F 63% 29.84 in 10.0 mi West 16.1 mph 23.0 mph N/A   Clear
12:15 PM 64.4 °F 48.2 °F 56% 29.84 in 10.0 mi WSW 17.3 mph 23.0 mph N/A   Clear
12:35 PM 64.4 °F 46.4 °F 52% 29.84 in 10.0 mi West 17.3 mph 24.2 mph N/A   Clear
12:56 PM 64.4 °F 46.4 °F 52% 29.85 in 10.0 mi West 12.7 mph 24.2 mph N/A   Clear
1:16 PM 64.4 °F 46.4 °F 52% 29.84 in 10.0 mi West 16.1 mph - N/A   Clear
1:36 PM 64.4 °F 48.2 °F 56% 29.83 in 10.0 mi WSW 13.8 mph 19.6 mph N/A   Clear
1:56 PM 64.4 °F 46.4 °F 52% 29.83 in 10.0 mi WSW 11.5 mph - N/A   Clear
2:16 PM 64.4 °F 46.4 °F 52% 29.83 in 10.0 mi WSW 15.0 mph 23.0 mph N/A   Clear
2:36 PM 64.4 °F 46.4 °F 52% 29.83 in 10.0 mi West 16.1 mph 23.0 mph N/A   Scattered Clouds
2:56 PM 64.4 °F 46.4 °F 52% 29.83 in 10.0 mi West 17.3 mph 23.0 mph N/A   Scattered Clouds
3:16 PM 64.4 °F 46.4 °F 52% 29.83 in 10.0 mi West 16.1 mph 21.9 mph N/A   Scattered Clouds
3:36 PM 64.4 °F 46.4 °F 52% 29.83 in 10.0 mi West 18.4 mph 23.0 mph N/A   Scattered Clouds
3:56 PM 64.4 °F 46.4 °F 52% 29.83 in 10.0 mi West 13.8 mph 20.7 mph N/A   Scattered Clouds
4:16 PM 62.6 °F 46.4 °F 55% 29.84 in 10.0 mi West 13.8 mph 27.6 mph N/A   Scattered Clouds
4:37 PM 60.8 °F 44.6 °F 55% 29.84 in 10.0 mi West 15.0 mph 21.9 mph N/A   Clear
4:52 PM 60.8 °F 44.6 °F 55% 29.85 in 10.0 mi West 13.8 mph 18.4 mph N/A   Clear
5:12 PM 59.0 °F 46.4 °F 63% 29.85 in 10.0 mi West 13.8 mph 18.4 mph N/A   Clear
5:32 PM 60.8 °F 46.4 °F 59% 29.85 in 10.0 mi West 11.5 mph - N/A   Mostly Cloudy
5:52 PM 59.0 °F 46.4 °F 63% 29.86 in 10.0 mi WSW 12.7 mph - N/A   Overcast
6:12 PM 59.0 °F 46.4 °F 63% 29.86 in 10.0 mi West 8.1 mph - N/A   Overcast
6:32 PM 57.2 °F 46.4 °F 67% 29.87 in 10.0 mi West 11.5 mph - N/A   Overcast
6:52 PM 57.2 °F 46.4 °F 67% 29.87 in 10.0 mi West 9.2 mph - N/A   Overcast
7:13 PM 57.2 °F 46.4 °F 67% 29.87 in 10.0 mi West 8.1 mph - N/A   Overcast
7:33 PM 57.2 °F 46.4 °F 67% 29.88 in 10.0 mi West 9.2 mph - N/A   Overcast
7:53 PM 57.2 °F 46.4 °F 67% 29.89 in 10.0 mi West 10.4 mph - N/A   Overcast
8:13 PM 57.2 °F 46.4 °F 67% 29.89 in 10.0 mi WSW 10.4 mph - N/A   Overcast
8:33 PM 55.4 °F 46.4 °F 72% 29.90 in 10.0 mi WSW 6.9 mph - N/A   Overcast
8:53 PM 55.4 °F 46.4 °F 72% 29.90 in 10.0 mi West 5.8 mph - N/A   Overcast
9:13 PM 55.4 °F 46.4 °F 72% 29.91 in 10.0 mi WSW 6.9 mph - N/A   Overcast
9:33 PM 55.4 °F 46.4 °F 72% 29.91 in 10.0 mi WSW 5.8 mph - N/A   Overcast
9:53 PM 55.4 °F 46.4 °F 72% 29.91 in 10.0 mi WSW 9.2 mph - N/A   Overcast
10:13 PM 55.4 °F 46.4 °F 72% 29.91 in 10.0 mi WSW 9.2 mph - N/A   Overcast
10:33 PM 55.4 °F 48.2 °F 77% 29.92 in 10.0 mi WSW 6.9 mph - N/A   Overcast
10:54 PM 55.4 °F 48.2 °F 77% 29.91 in 10.0 mi West 9.2 mph - N/A   Overcast
11:14 PM 55.4 °F 46.4 °F 72% 29.91 in 10.0 mi WSW 9.2 mph - N/A   Overcast
11:34 PM 55.4 °F 48.2 °F 77% 29.91 in 10.0 mi WSW 9.2 mph - N/A   Overcast
11:54 PM 55.4 °F 46.4 °F 72% 29.90 in 10.0 mi WSW 8.1 mph - N/A   Overcast